sat.trackr.live / text

‹ back to catalog

STARLINK-31108

NORAD 58738 · 2024-005L

PAYLOAD ACTIVE UNKNOWN

§ Identity

Operator
Country
US
Launch date
2024-01-07
Launch site
AFETR
Launch vehicle
Mass (kg)
RCS (m²)

Purposes: comms

External: N2YO · Heavens-Above · Gunter

§ Orbital elements

Epoch: 2026-05-25T01:11:32.047008Z

Period
94.27 min
Inclination
43.0041°
Eccentricity
0.0001582
Mean motion
15.27577197 rev/d
Perigee alt
482.0 km
Apogee alt
484.1 km
Semi-major
6,861.2 km
B*
2.9740e-5
RAAN
148.3608°
Arg perigee
278.1837°
Mean anomaly
81.8835°
Rev number
13,211

§ Raw data

STARLINK-311081 58738U 24005L   26145.04967647  .00000556  00000+0  29740-4 0  99942 58738  43.0041 148.3608 0001582 278.1837  81.8835 15.27577197132119

JSON: /api/v1/satellites/58738 · /tle

For live sub-satellite position, see the globe view (requires WebGL).

§ Visibility from observer

Set your observer location to see the next 7 days of passes ≥ 10°. The values pass through the URL so the page stays shareable.

No JS? Fill the form by hand. The geolocation button needs JavaScript.